GFSNW_sfc_thetae_000.txt.gz
Theta_e
299 299 299 300 300 302 303 300 291 307 311 296 297 293 295 298 297 299 297 297 296 293 293 291 291 290 293 294 293 288 289 290 285 286 288 288 286 287 286 281 280 281 281 281
299 299 298 299 300 301 296 294 293 307 307 289 291 295 294 297 296 296 296 294 296 296 293 289 292 292 295 296 294 292 293 287 281 282 284 286 285 288 288 288 285 281 278 280
299 299 300 298 298 300 294 292 284 294 299 296 293 290 290 291 296 296 297 295 296 293 291 293 290 290 292 291 292 295 294 287 285 280 282 286 285 287 288 287 282 282 282 284
299 299 298 299 299 300 291 286 284 288 282 287 290 291 289 287 287 292 294 292 291 290 287 288 288 290 290 289 291 289 290 284 286 286 288 286 284 283 283 281 283 280 282 283
299 300 299 298 299 299 287 282 283 285 283 285 285 286 285 286 287 288 287 287 288 289 286 287 285 286 284 284 286 286 288 280 281 277 281 280 279 281 281 282 281 282 282 279
300 300 299 300 300 296 284 285 286 287 282 281 279 279 282 283 284 285 285 283 285 284 285 286 285 285 284 284 282 281 282 280 277 273 278 277 272 277 279 280 282 278 275 273
301 300 299 300 299 298 288 286 284 282 275 279 279 281 280 280 280 279 281 283 282 284 286 286 284 283 282 282 282 283 279 277 274 273 270 266 275 278 279 277 276 277 275 273
301 300 299 299 300 300 292 288 285 279 272 280 279 280 280 279 278 279 279 281 284 285 280 275 266 266 269 276 278 279 281 278 268 267 262 271 275 275 274 274 274 276 276 278
301 301 301 300 299 299 291 291 290 286 277 276 281 278 279 273 271 273 278 280 279 281 276 266 258 260 264 264 270 277 277 279 275 265 264 258 272 276 278 277 267 272 275 275
300 300 301 301 301 300 292 288 291 288 281 281 281 277 277 279 276 269 269 272 274 278 271 256 258 260 272 263 262 264 259 258 264 261 259 263 271 274 276 262 265 270 274 276
299 298 299 300 300 300 297 292 292 289 284 283 282 283 279 278 275 269 270 271 270 270 262 259 269 262 270 267 270 269 267 260 256 254 254 257 275 273 268 271 274 274 275 278
299 299 299 299 300 299 299 291 293 293 286 283 284 286 287 285 282 277 271 274 266 274 268 264 264 260 261 263 259 272 264 269 262 265 264 275 277 275 279 277 274 276 277 279
299 299 298 299 299 299 297 292 292 290 285 284 284 282 286 287 286 287 278 273 280 277 279 273 273 268 270 262 262 267 271 274 271 271 274 275 277 279 278 278 278 278 278 278
298 298 298 298 298 298 298 291 293 290 285 278 277 281 282 286 287 285 285 283 281 281 280 277 274 271 277 272 273 271 273 272 270 271 275 276 277 278 279 279 278 276 276 275
298 297 297 297 297 297 296 293 293 292 285 277 273 274 280 283 284 283 284 283 281 281 278 276 273 276 276 275 275 272 275 273 271 269 276 275 276 279 277 276 275 273 272 271
297 297 297 296 296 296 290 284 291 293 292 281 275 279 274 279 281 280 281 281 281 280 278 277 278 280 277 272 270 276 277 278 278 275 279 278 278 275 272 271 270 271 269 269
297 297 296 296 296 291 286 283 284 294 292 282 276 274 272 278 278 275 278 280 279 279 278 276 277 277 278 274 270 276 277 277 278 274 272 275 273 271 269 269 268 267 266 266
296 296 296 296 296 294 288 292 294 293 286 283 274 269 266 274 269 271 278 276 278 279 277 275 275 277 277 271 276 278 278 272 269 267 268 267 267 267 266 266 265 262 263 263
296 296 295 291 288 284 286 294 295 292 285 276 274 264 262 276 274 276 272 277 271 278 274 275 274 271 269 273 276 275 264 265 263 263 264 263 262 262 263 261 261 259 260 261
295 292 284 280 284 292 292 288 283 282 282 280 274 261 262 275 273 269 269 275 272 268 270 275 272 271 276 267 264 263 262 261 261 259 260 257 257 258 259 258 259 259 259 258
287 283 280 283 291 282 281 277 276 277 273 277 271 269 267 275 270 271 274 270 268 264 264 266 261 258 269 262 261 262 261 260 258 257 258 258 257 257 257 257 257 257 256 255
286 285 286 286 281 277 274 272 273 271 268 265 268 272 276 274 275 270 272 269 268 263 260 266 263 266 259 258 258 258 257 255 254 255 255 256 257 257 256 255 254 255 255 255
285 281 278 278 276 270 268 264 263 261 260 261 265 269 272 273 275 272 271 267 264 258 262 262 261 257 255 253 254 254 254 253 253 253 254 254 254 254 253 253 254 253 253 253
278 275 270 270 268 266 264 261 260 265 264 261 264 266 270 268 270 271 266 265 265 262 261 257 255 251 250 251 253 248 249 248 250 250 251 251 252 252 252 252 252 252 251 253
276 274 268 269 258 254 250 250 258 262 265 268 265 263 273 264 268 271 266 263 262 263 259 256 250 251 252 252 249 246 246 248 248 248 248 249 250 250 250 250 250 250 253 255
277 272 266 256 258 252 252 249 254 259 267 263 265 263 268 266 268 267 265 262 258 260 250 249 252 251 250 246 244 246 246 245 245 246 246 249 248 248 250 250 249 252 254 255
267 261 257 259 262 262 253 253 257 263 262 258 265 265 263 267 263 259 258 258 254 248 250 250 249 247 245 244 243 244 243 244 244 242 244 245 246 246 245 247 250 254 256 256

GFSNW_sfc_thetae_003.txt.gz
Theta_e
300 299 300 300 301 302 302 297 288 307 311 297 297 292 294 297 296 298 297 297 295 292 292 291 290 289 292 294 290 287 289 288 281 284 289 287 286 286 287 281 280 280 282 281
299 299 299 299 300 300 294 292 292 306 307 288 291 293 294 297 294 295 296 294 295 294 291 288 291 292 294 295 294 291 292 285 279 280 284 286 285 286 287 287 285 281 278 281
299 299 298 299 299 300 293 288 283 292 299 295 292 289 289 289 294 294 296 294 294 291 289 292 289 290 293 291 292 294 294 287 285 279 280 284 283 284 286 285 281 281 282 284
300 299 298 297 300 299 290 284 282 288 284 285 287 289 288 285 285 291 291 289 290 288 286 286 286 289 289 290 291 288 289 283 285 285 286 284 282 281 280 278 280 277 280 279
301 299 299 298 301 297 285 281 280 283 284 285 283 287 284 285 286 287 286 285 286 286 284 286 284 287 286 286 284 283 286 281 279 274 280 280 278 279 280 279 279 280 280 280
302 300 300 300 301 295 283 283 285 284 280 280 279 278 282 281 283 284 281 281 282 281 282 284 284 285 284 284 282 282 282 280 276 274 277 276 272 275 278 278 280 278 275 273
301 301 300 299 300 296 288 285 283 277 273 279 279 281 281 280 280 279 281 282 281 283 285 285 283 282 282 282 282 283 280 277 277 273 268 266 275 276 279 277 275 274 272 271
301 301 301 300 300 299 289 288 283 276 270 279 279 279 279 279 278 278 279 280 282 283 279 276 264 265 268 274 278 279 281 277 267 267 264 271 274 275 274 274 272 275 273 274
302 302 301 302 300 300 294 292 291 284 273 273 280 278 278 272 271 272 277 279 278 280 276 265 258 260 264 264 269 275 277 278 274 260 261 256 270 276 278 275 265 272 271 271
301 301 301 301 301 301 292 292 292 288 280 280 280 276 277 279 275 269 269 271 273 278 270 254 257 259 270 262 261 262 259 261 270 269 268 265 270 273 276 262 265 271 272 274
301 301 301 301 301 301 297 292 291 289 283 282 282 283 278 278 275 269 270 271 270 269 262 259 268 261 269 266 269 268 267 259 254 253 256 260 273 273 268 271 275 274 275 276
301 300 300 300 300 301 300 291 293 294 286 281 284 286 287 284 281 277 269 273 266 274 267 263 265 260 263 264 260 271 265 269 263 265 264 274 276 275 278 279 276 277 276 277
300 300 300 300 300 300 298 291 291 290 285 284 283 282 285 286 286 286 277 271 278 277 279 272 273 268 270 260 262 266 271 273 270 271 274 275 277 279 279 278 277 278 278 277
300 300 300 300 299 299 299 292 293 291 286 279 278 281 282 286 287 285 285 283 280 281 280 277 273 266 276 271 272 271 273 272 270 271 275 276 277 278 279 279 278 277 275 275
299 299 299 299 299 299 296 293 293 294 286 278 278 277 280 283 285 283 283 282 280 280 277 276 273 274 275 272 274 272 276 273 271 270 276 275 276 279 277 277 276 273 272 271
298 299 298 299 298 298 290 285 291 294 292 282 276 279 274 278 281 282 281 282 281 281 278 277 277 279 277 271 268 275 277 278 278 276 279 278 279 273 272 272 270 270 269 269
298 298 298 298 298 293 286 282 286 294 292 282 277 274 274 278 277 274 278 280 280 280 278 276 276 276 278 274 269 276 278 278 278 277 273 275 273 271 269 269 268 267 266 266
297 298 298 298 298 296 289 291 294 293 287 284 275 271 265 274 270 271 278 276 278 278 277 274 274 275 276 270 275 277 278 278 272 268 268 268 267 267 266 265 264 262 263 263
297 297 297 294 291 285 284 295 295 292 286 277 275 270 264 274 273 274 271 277 271 278 273 274 273 266 267 271 275 276 273 269 266 264 264 264 263 263 262 261 260 259 260 260
296 293 285 282 285 293 293 287 283 283 282 280 274 261 263 274 271 268 270 273 270 267 271 275 271 269 275 274 264 264 263 262 262 261 260 258 257 259 259 258 259 259 259 258
288 284 281 284 292 283 281 277 276 276 274 278 271 267 264 272 269 270 275 271 272 267 265 267 255 257 270 263 261 262 261 260 258 258 258 258 257 257 257 257 257 257 256 255
287 286 287 286 282 278 274 273 273 268 265 263 265 267 273 273 276 272 273 270 270 266 257 260 255 265 263 260 259 258 257 256 255 255 255 256 257 257 255 255 254 254 255 255
285 282 278 278 276 270 269 265 262 259 257 261 264 267 272 274 276 273 272 268 266 259 261 259 262 261 255 254 255 254 254 254 254 253 253 253 253 253 252 252 253 253 252 252
278 275 270 271 269 271 265 264 264 265 265 264 265 263 269 273 272 273 267 267 264 261 257 257 261 253 251 252 252 250 251 250 250 249 250 251 251 251 251 251 251 250 250 250
276 275 269 270 260 253 250 248 259 258 263 268 265 265 274 269 270 272 268 262 260 259 259 259 251 251 251 251 250 248 249 248 246 246 246 248 249 248 248 248 247 247 248 249
277 271 267 261 261 256 254 250 259 260 266 263 267 265 268 267 268 267 264 260 257 262 253 248 252 250 250 248 248 249 245 244 244 244 244 247 247 247 247 246 247 247 247 250
268 263 259 262 264 265 262 261 261 265 264 262 264 263 263 267 265 262 258 259 259 247 245 249 250 250 250 248 242 242 243 243 242 241 241 242 244 241 241 244 248 247 250 253

GFSNW_sfc_thetae_006.txt.gz
Theta_e
301 301 300 300 301 304 303 302 291 309 312 297 298 292 295 297 297 300 298 299 297 295 295 292 292 291 294 300 296 292 295 289 285 289 295 293 292 290 290 284 282 285 283 283
300 300 300 299 300 300 300 297 296 307 308 289 291 296 295 297 296 296 295 294 296 296 293 288 292 293 298 298 296 294 295 288 283 285 288 290 288 290 290 290 287 283 280 282
301 300 299 299 300 299 299 294 288 295 301 300 294 291 291 292 297 296 297 295 297 294 291 294 290 290 295 295 294 295 294 289 286 281 285 289 285 287 289 288 282 283 283 285
301 300 299 298 300 298 297 291 287 291 289 291 292 292 291 288 288 293 294 291 292 289 286 287 287 290 291 292 292 292 291 284 286 287 288 288 287 286 286 284 284 279 283 283
301 300 299 298 300 297 292 287 287 289 287 288 289 290 287 287 288 289 287 287 289 288 285 286 284 287 287 286 289 288 289 282 284 280 285 285 282 284 285 283 283 282 282 281
301 301 300 300 301 296 289 290 291 288 284 284 284 285 286 284 286 285 285 285 285 284 286 286 287 287 287 287 284 284 284 282 280 276 282 280 275 279 281 282 284 283 278 281
301 302 301 300 301 297 293 291 290 284 279 282 282 283 284 283 283 283 284 284 283 286 289 287 286 285 284 284 284 286 281 281 280 275 277 269 280 282 282 280 282 279 277 277
301 301 302 300 300 299 294 292 289 284 278 281 281 282 282 282 282 281 282 284 285 287 284 279 275 274 273 277 281 282 284 281 276 272 272 276 278 280 279 277 278 280 279 278
302 302 302 302 301 301 297 294 294 288 280 279 282 281 281 279 279 279 280 283 283 284 281 276 270 269 270 271 273 278 279 281 276 269 267 265 275 278 280 279 272 279 278 278
302 302 302 302 301 301 297 295 296 290 282 283 283 280 280 282 280 278 277 278 279 281 277 271 269 270 273 269 268 270 271 272 271 272 270 273 278 278 280 269 272 280 279 279
302 301 302 302 301 302 296 293 296 290 284 285 285 286 282 281 281 277 276 277 276 276 273 271 272 271 272 271 273 272 271 270 268 266 266 265 278 277 273 278 281 281 280 280
301 301 301 302 302 301 301 292 294 295 287 286 288 289 289 288 286 284 276 280 275 279 276 273 274 270 271 271 268 274 270 274 272 271 272 278 280 280 281 282 281 281 281 282
301 300 301 301 301 301 300 295 293 291 285 285 285 284 288 289 289 290 281 279 282 280 283 277 276 271 275 270 270 273 276 278 273 274 277 278 280 282 282 282 282 282 282 281
301 301 301 300 300 300 300 293 293 291 287 280 284 285 286 290 290 288 288 286 283 284 282 279 276 273 278 274 275 273 276 276 274 274 277 278 280 281 282 282 283 282 281 279
300 300 300 300 300 300 299 296 295 294 287 281 281 281 284 288 288 287 287 285 283 281 278 277 275 278 277 278 276 274 278 275 273 272 278 278 278 282 283 280 280 278 276 274
298 299 299 299 299 299 293 285 292 295 292 283 278 284 281 283 286 285 284 284 283 282 280 279 280 281 277 273 272 277 279 280 280 277 281 281 281 282 279 277 275 273 271 270
298 298 298 299 299 296 286 285 290 295 294 283 279 278 279 280 282 282 283 284 283 282 280 278 278 278 279 275 271 277 279 280 280 281 280 278 280 278 272 272 270 269 267 268
297 297 297 298 298 297 290 293 295 295 288 284 277 275 274 278 276 277 281 279 281 280 279 279 277 278 277 272 277 279 280 280 280 279 274 274 271 270 269 267 266 265 265 265
296 296 297 294 292 286 287 295 295 293 287 279 278 273 270 276 276 278 277 279 274 279 275 276 277 274 271 275 277 277 278 277 278 269 268 267 268 267 265 263 263 262 263 262
295 293 286 283 285 295 294 289 284 283 283 283 276 274 272 276 274 273 274 276 273 270 273 277 273 272 277 278 277 274 270 268 267 266 264 262 263 264 263 261 261 261 261 260
288 284 283 288 293 287 283 279 278 279 276 279 276 275 270 275 272 272 276 273 274 269 271 271 270 268 274 277 268 266 265 264 261 262 261 261 260 260 260 260 260 259 258 257
287 287 288 286 282 280 276 274 276 275 273 272 272 272 277 275 278 274 274 271 272 267 268 269 266 270 271 265 262 260 260 260 258 258 258 257 258 258 257 257 256 256 256 256
286 283 279 279 278 272 270 268 268 269 266 269 270 271 275 276 277 274 273 269 268 266 266 265 268 269 260 258 257 255 255 255 255 255 255 255 255 255 254 254 255 255 254 254
279 277 271 273 271 272 270 270 269 272 271 268 270 270 272 274 273 274 269 269 266 264 262 263 270 263 256 255 254 253 253 252 253 253 253 253 253 253 253 253 253 252 251 252
277 276 270 271 266 262 261 259 268 268 272 272 270 269 274 271 271 272 269 263 263 264 264 268 262 255 253 253 252 251 251 252 251 251 250 251 251 251 250 251 250 250 250 250
278 272 267 261 265 262 260 259 263 263 272 272 272 270 269 268 269 267 265 263 261 266 265 258 254 252 252 251 250 250 250 249 250 250 249 250 249 249 250 249 249 250 250 250
269 266 260 262 267 267 263 263 265 268 270 269 270 267 267 270 267 265 265 264 268 260 253 253 253 252 251 250 249 250 250 248 248 248 248 248 249 246 247 250 254 252 253 251

GFSNW_sfc_thetae_009.txt.gz
Theta_e
303 302 301 301 301 305 303 302 292 311 314 298 298 294 295 297 297 301 298 298 297 294 294 292 292 292 295 301 299 293 296 290 286 289 295 297 294 291 291 284 282 285 283 283
301 301 300 300 300 301 302 296 298 309 309 290 292 296 295 297 295 296 296 296 297 297 294 289 292 294 298 299 297 294 295 288 282 284 289 292 290 291 291 291 288 283 280 283
301 301 300 299 299 298 303 297 289 298 300 300 294 292 292 292 298 296 297 295 297 294 292 294 290 290 295 297 296 295 296 289 285 281 284 289 286 288 290 288 283 283 284 286
301 301 299 299 300 298 300 295 290 294 289 292 294 293 292 290 289 295 295 292 292 291 287 288 288 291 292 294 293 293 293 284 286 287 288 288 286 285 285 284 285 281 284 284
301 301 300 299 300 297 294 289 289 292 292 294 292 292 289 289 290 290 288 289 290 291 287 288 285 288 288 287 289 289 290 282 284 280 284 284 281 284 284 285 285 285 285 283
301 301 301 300 301 297 291 293 293 291 288 289 289 290 290 288 291 289 289 289 288 286 288 289 288 289 289 289 286 285 284 282 279 274 280 280 276 280 282 283 285 284 279 282
302 301 302 301 301 298 295 294 293 287 283 285 285 285 287 287 288 286 287 288 286 288 290 288 287 286 285 285 285 287 281 280 280 275 276 268 279 285 283 280 281 283 282 280
302 301 302 301 301 300 296 296 291 288 283 284 284 284 285 286 286 285 285 286 288 289 285 280 277 276 275 278 281 282 284 281 275 272 272 276 279 281 280 278 278 283 281 279
302 302 303 302 302 301 298 296 296 290 284 282 285 283 284 282 282 281 282 285 287 287 282 278 272 271 274 273 275 280 280 282 277 275 269 266 276 280 281 280 272 283 280 279
302 302 302 302 302 301 300 296 298 291 284 286 285 282 282 285 283 281 281 281 281 285 279 274 273 272 276 271 271 273 273 275 273 273 271 274 282 280 281 270 274 282 281 280
302 302 302 302 302 302 299 297 299 292 286 287 287 287 284 284 284 280 278 279 279 279 275 275 274 273 275 273 275 274 273 272 271 271 268 266 280 279 274 279 283 282 281 281
301 302 302 302 302 302 301 292 296 298 289 289 292 291 292 290 289 286 281 283 280 282 278 278 278 274 275 273 269 278 271 275 273 274 273 280 281 281 283 284 283 282 282 283
301 301 302 301 301 302 301 297 293 291 285 285 286 286 290 293 292 292 283 283 285 282 286 282 279 274 277 272 272 274 278 280 275 275 277 279 281 283 284 284 283 283 284 283
301 301 301 301 302 301 301 295 295 292 288 282 285 289 290 294 292 291 291 288 287 286 284 280 278 275 280 275 277 276 279 278 276 275 278 280 281 282 283 283 284 283 283 283
300 300 300 301 301 301 299 298 296 296 288 282 284 285 289 291 291 289 289 288 286 283 280 278 276 280 278 279 278 276 279 277 275 273 279 279 280 283 284 282 282 282 281 279
298 299 299 299 300 300 295 286 294 295 293 283 279 288 285 288 289 288 287 287 286 284 281 280 281 283 279 275 273 279 281 282 282 279 282 282 282 283 283 282 280 278 276 274
297 298 299 299 299 297 288 286 292 296 293 284 280 280 281 284 286 286 286 287 284 284 282 280 280 280 280 276 272 279 281 282 282 283 282 279 281 280 280 276 274 272 270 270
296 297 297 298 298 297 291 294 295 296 288 285 279 278 278 282 279 279 284 281 282 282 281 281 279 280 279 273 278 280 281 281 281 282 282 281 278 275 273 272 270 268 268 269
295 296 296 295 292 286 289 297 296 295 287 280 280 276 274 279 280 281 279 281 276 281 277 278 279 276 273 277 278 279 280 279 279 280 272 270 271 272 271 268 267 266 267 266
294 293 286 283 287 295 295 290 285 284 284 283 279 283 277 279 278 277 277 278 276 273 276 280 275 274 279 280 280 280 279 275 272 270 269 266 266 268 268 265 265 264 264 263
288 284 284 290 294 289 285 281 280 281 278 280 280 281 275 279 275 275 278 275 275 270 274 273 272 272 277 280 280 277 271 269 267 267 266 265 264 266 265 263 262 262 260 259
288 288 289 287 284 282 278 277 279 277 276 278 277 278 281 277 280 276 275 273 273 268 274 271 269 275 277 275 269 266 265 264 261 262 262 261 262 261 260 259 259 259 258 258
287 283 281 280 280 274 272 270 273 274 274 275 276 274 279 277 278 276 274 270 269 271 269 268 272 275 268 264 261 258 258 259 258 258 258 258 257 257 256 256 257 256 256 256
280 278 273 274 273 274 275 276 278 279 278 276 278 275 275 277 274 275 270 271 269 266 265 267 274 273 264 260 260 256 256 256 257 256 256 255 255 255 255 255 254 254 253 254
278 278 272 273 274 270 268 267 272 273 278 276 274 274 276 274 273 274 270 265 265 267 268 273 275 261 258 256 256 255 254 254 254 254 253 254 253 253 253 254 252 252 251 252
279 275 270 267 272 269 266 267 270 269 276 277 277 273 271 270 272 269 268 266 264 270 272 266 259 256 256 255 255 254 253 253 252 252 252 253 252 251 252 250 251 251 252 251
271 268 266 265 272 275 272 271 271 272 275 272 273 269 269 273 269 268 271 269 273 268 262 260 259 256 254 253 252 251 251 251 251 251 250 251 251 248 249 250 255 253 255 252

GFSNW_sfc_thetae_012.txt.gz
Theta_e
304 303 303 302 302 303 304 301 291 309 313 295 296 292 295 298 297 299 298 297 295 293 294 292 291 291 294 298 296 291 293 289 282 286 292 294 290 289 288 282 280 283 282 281
303 303 302 302 305 304 301 296 297 310 309 290 292 295 295 297 295 295 295 294 295 295 292 289 291 292 296 298 295 292 293 285 279 279 285 288 287 288 288 287 284 280 278 279
302 301 301 301 299 299 302 296 289 298 300 299 293 292 292 291 297 295 296 294 296 293 291 293 289 290 294 295 295 295 295 287 281 276 280 285 282 285 286 285 281 280 280 282
302 302 301 301 300 297 298 295 289 294 288 291 293 293 292 289 290 295 295 292 292 291 288 288 287 289 290 294 293 292 291 279 283 284 286 285 283 282 283 281 282 279 280 280
302 301 300 299 300 297 294 290 288 291 290 292 292 292 289 288 290 291 290 289 290 290 287 288 283 286 286 285 287 287 288 275 279 274 281 281 279 280 281 281 281 280 281 280
302 302 301 300 300 297 290 292 292 290 289 287 288 289 289 289 290 291 290 289 288 286 286 287 287 287 287 287 284 282 280 275 269 271 277 276 269 276 278 280 282 281 277 278
302 301 302 301 301 298 294 293 291 286 283 285 287 285 288 288 288 286 287 288 286 286 289 287 285 283 283 283 283 286 279 273 271 266 267 261 275 281 279 278 278 278 277 273
303 302 301 302 301 301 294 294 290 287 281 284 283 284 283 284 284 283 284 285 287 288 283 276 270 269 271 275 280 280 282 279 274 265 264 272 276 278 276 274 273 277 276 277
302 302 302 302 302 302 296 294 295 288 281 281 284 283 283 280 279 279 280 282 285 282 280 272 262 262 269 267 272 277 278 280 275 264 263 258 272 277 279 278 268 273 274 272
302 302 302 302 302 302 297 294 296 288 281 284 283 281 281 284 282 277 278 276 277 281 276 266 265 264 274 265 264 265 264 265 268 269 267 267 275 276 278 264 269 275 275 276
303 302 302 301 302 302 298 294 296 289 283 284 285 286 282 282 281 275 274 275 275 275 269 269 273 267 272 269 272 270 269 264 262 262 259 261 276 275 271 274 279 278 279 278
302 302 302 302 302 302 301 292 297 296 288 285 289 290 290 288 287 282 276 278 274 279 274 273 273 266 270 268 261 275 266 272 266 269 268 277 278 277 280 280 277 279 279 280
301 301 301 301 302 302 301 294 294 292 285 285 284 284 289 292 290 290 278 280 282 281 283 276 273 266 274 264 267 269 274 276 271 271 275 276 279 280 280 280 279 279 279 279
300 301 301 301 301 301 301 294 294 292 286 280 281 289 287 291 291 289 288 286 285 284 282 276 274 269 278 271 274 272 275 275 272 272 276 278 279 279 280 281 281 279 279 279
299 300 300 300 301 301 299 297 296 295 288 281 280 281 286 290 289 287 288 286 283 281 279 275 273 276 277 278 276 274 278 276 273 272 278 277 278 280 280 279 279 279 278 277
298 298 299 300 300 300 295 286 295 296 294 284 279 284 280 285 288 286 285 285 283 283 278 278 279 281 279 274 272 277 279 280 280 277 280 280 280 280 280 279 278 278 276 275
297 297 298 299 299 296 288 285 289 297 294 284 279 279 279 283 284 283 284 284 283 282 281 279 279 278 280 276 272 278 279 280 280 281 280 278 280 279 277 277 274 273 271 270
296 297 297 297 298 297 291 294 295 296 288 284 278 277 274 280 280 279 283 282 283 282 280 279 278 279 279 273 277 279 280 280 280 280 280 279 276 274 272 272 270 266 268 268
295 296 296 293 290 286 288 296 297 294 287 280 279 274 271 279 278 280 279 281 276 281 277 277 278 276 272 275 278 278 279 279 279 278 271 269 270 270 270 268 266 265 266 265
294 292 285 282 286 296 295 290 285 284 284 283 279 278 273 278 277 276 275 276 274 271 274 277 274 273 278 279 279 280 275 276 273 268 266 263 263 266 267 265 265 265 264 263
287 284 283 286 293 288 285 280 279 280 278 280 278 278 271 276 272 273 277 272 273 268 267 270 266 265 275 279 279 280 275 272 266 266 265 265 264 265 264 263 262 261 260 258
287 287 288 287 284 281 278 276 275 276 274 277 274 278 280 277 278 274 275 272 273 268 268 267 265 270 275 273 269 266 266 264 261 261 262 262 263 261 260 259 258 257 257 257
286 283 280 279 278 273 272 268 272 267 275 273 270 273 276 277 278 276 273 270 269 269 269 264 265 270 266 263 260 257 257 258 257 257 257 257 256 256 254 254 254 253 252 251
279 276 271 272 270 274 272 271 273 271 272 274 276 274 273 276 274 275 270 271 268 265 262 261 265 270 263 258 256 255 254 255 256 254 254 254 254 253 252 251 250 249 249 249
276 275 270 270 270 264 261 263 267 268 273 277 275 274 276 273 272 274 269 265 265 263 262 265 266 258 259 256 253 253 252 252 251 250 250 252 251 249 248 248 247 247 247 247
277 276 271 269 266 260 259 261 266 267 275 275 276 273 271 270 272 269 266 264 261 263 264 259 257 254 253 253 251 251 250 250 249 247 248 250 248 247 246 244 244 245 246 247
274 264 263 267 271 270 263 264 269 271 275 270 271 269 269 272 269 268 270 263 263 260 256 256 256 255 253 251 249 248 247 247 246 245 246 246 245 243 243 244 246 245 247 247

GFSNW_sfc_thetae_015.txt.gz
Theta_e
307 307 307 308 308 309 307 301 294 308 311 294 295 292 295 298 296 299 297 295 293 291 291 291 290 290 292 296 294 290 291 288 279 285 290 291 289 287 287 282 278 279 282 280
305 305 304 305 307 306 302 296 297 308 308 289 291 295 295 297 295 295 295 293 294 293 291 289 290 291 294 296 294 292 293 284 275 278 282 288 285 286 286 287 284 281 278 279
304 303 302 305 305 302 301 295 290 297 300 295 292 292 291 291 296 294 294 293 294 292 289 291 288 288 292 294 293 296 296 288 280 277 277 283 281 282 284 284 279 277 278 280
303 302 301 301 299 299 300 294 289 293 288 290 292 292 291 290 289 293 294 291 291 290 288 287 287 290 291 292 295 291 290 279 283 283 284 283 282 281 282 280 281 277 280 279
303 302 302 301 300 298 294 288 287 289 289 292 292 291 288 289 289 291 289 289 291 291 288 288 282 286 285 285 286 286 288 276 279 273 281 281 278 280 280 280 280 279 280 278
303 302 301 301 300 297 288 289 290 289 287 286 288 288 289 289 291 289 289 290 289 286 285 286 286 286 286 286 284 282 281 276 270 269 278 275 268 276 277 278 279 278 274 278
303 303 302 301 300 297 291 291 289 284 281 285 286 285 289 288 288 287 285 287 286 285 288 286 283 282 282 281 282 285 279 274 268 264 264 259 274 278 279 277 278 276 276 272
303 302 302 302 301 300 292 292 288 284 275 284 283 283 282 283 286 285 284 283 286 286 282 277 270 269 272 275 277 279 283 277 265 263 257 269 274 277 276 275 272 276 274 275
303 303 302 302 302 302 294 292 291 285 279 279 283 282 283 279 278 278 280 282 283 283 280 271 262 262 267 266 271 277 279 280 273 262 264 259 271 277 278 277 268 272 270 272
302 302 302 302 302 302 295 291 292 285 275 282 282 279 281 283 280 276 276 277 278 281 275 261 263 264 273 265 263 263 262 262 271 271 268 267 273 275 278 264 268 271 273 274
302 302 302 302 302 302 298 292 292 286 278 282 284 284 281 281 279 274 274 274 274 273 266 266 272 265 271 268 271 270 268 264 260 258 255 261 276 274 271 274 278 277 277 277
302 302 303 302 302 302 300 292 294 292 284 282 287 288 287 286 285 278 272 274 271 277 270 267 268 262 265 265 261 273 267 271 265 268 267 276 277 276 279 279 276 279 278 279
301 301 302 302 302 301 300 294 294 292 286 285 285 281 288 290 288 287 275 274 280 280 280 272 269 264 271 262 263 267 272 274 271 270 274 275 277 278 279 279 279 279 279 279
300 301 301 301 301 302 301 294 295 291 285 279 277 286 284 289 289 287 285 283 282 281 280 272 267 264 277 268 272 271 273 274 270 271 276 276 277 278 279 279 279 278 278 278
299 299 299 300 301 301 299 297 295 295 288 278 274 278 284 287 287 286 286 283 281 279 274 269 268 273 273 271 275 271 277 275 273 271 278 277 277 279 279 279 279 279 278 277
297 298 298 298 300 300 295 286 295 295 294 284 279 282 278 284 286 285 284 284 282 282 280 277 276 279 278 270 264 277 279 279 280 277 280 280 280 279 279 278 278 278 278 278
297 297 297 298 299 296 288 285 290 296 295 284 279 279 278 282 281 279 281 283 283 283 281 278 277 277 280 274 267 278 279 279 280 280 279 277 279 278 278 278 278 274 271 271
296 296 296 297 298 296 291 293 295 297 287 284 278 275 274 281 281 279 283 282 283 282 281 278 277 279 279 273 277 279 280 280 279 278 279 280 278 275 274 273 270 268 269 268
295 296 296 293 288 285 287 297 297 295 287 279 278 273 267 281 280 281 280 282 277 282 278 277 278 272 272 275 277 278 279 278 279 279 272 272 274 276 270 269 267 268 267 266
294 292 285 282 285 294 294 289 284 284 284 283 278 269 272 278 275 274 275 277 275 272 275 278 275 273 278 279 279 278 278 277 274 269 269 263 265 268 268 267 266 266 265 264
287 283 282 283 293 286 284 279 278 272 269 280 275 277 271 274 270 268 277 272 274 270 270 271 269 265 276 280 279 280 280 276 272 270 268 267 267 267 266 264 262 262 261 258
286 286 287 287 282 281 276 274 270 270 268 270 275 271 274 275 277 275 275 271 272 267 269 268 265 272 277 275 277 277 271 268 263 262 263 263 264 263 262 260 258 256 257 256
286 282 278 278 277 272 270 262 271 262 270 272 265 269 274 277 278 275 273 270 269 271 270 267 266 270 270 275 264 260 259 259 258 258 258 258 256 256 254 254 253 253 252 249
278 275 271 271 269 266 265 263 268 271 269 269 268 271 271 273 274 275 270 272 270 266 265 263 264 268 271 264 260 259 256 256 256 255 255 254 254 253 252 251 250 249 249 248
275 275 267 270 265 259 258 258 264 267 269 275 271 269 276 272 272 274 269 265 265 264 262 263 263 262 261 259 257 256 254 253 252 250 251 252 251 251 248 245 245 246 247 246
276 271 270 261 262 258 258 256 262 270 277 278 276 273 272 270 272 270 266 265 263 263 261 256 256 255 258 256 255 253 252 250 249 248 249 250 249 248 247 242 243 244 244 245
274 266 252 259 267 269 266 261 264 269 274 271 271 269 268 273 269 268 270 265 262 257 259 258 259 258 256 254 251 251 251 249 247 244 245 244 243 242 243 246 246 243 243 244

GFSNW_sfc_thetae_021.txt.gz
Theta_e
318 317 317 318 317 317 314 306 300 308 313 299 301 298 297 299 299 299 297 295 294 291 289 288 287 288 290 293 292 289 291 287 279 284 287 287 286 285 286 282 278 278 278 280
311 313 314 314 315 315 307 300 298 307 307 295 293 295 296 298 295 296 295 294 294 293 290 288 288 289 292 292 292 290 292 283 275 282 283 285 284 284 284 284 282 277 276 279
307 308 311 307 308 306 304 297 291 297 300 297 296 293 293 293 297 295 296 295 294 292 290 291 289 288 291 292 292 296 296 287 284 281 281 283 281 282 283 283 277 281 282 281
305 305 306 305 306 305 302 295 292 294 288 291 294 296 294 293 291 296 296 292 293 291 287 287 288 289 290 290 292 290 291 282 282 283 282 283 283 282 281 281 280 277 279 278
303 303 303 303 304 304 296 291 290 292 291 295 293 294 291 292 294 293 292 292 293 293 291 290 286 289 288 287 286 287 286 279 280 278 283 283 282 283 283 284 283 281 282 280
303 303 302 301 301 300 293 292 292 292 289 290 291 290 292 292 294 291 293 294 292 290 292 294 289 290 289 289 287 284 284 279 278 279 278 278 275 276 279 281 281 280 277 281
303 303 303 301 300 297 294 292 292 287 284 286 287 289 291 290 291 289 287 289 290 287 287 287 285 282 282 285 285 286 281 279 277 273 269 269 278 276 278 278 278 277 276 273
304 304 303 302 301 298 294 293 290 287 283 287 287 288 288 289 292 288 286 285 286 288 287 282 280 277 280 278 278 280 283 280 273 272 266 272 276 276 275 275 273 276 277 275
304 304 303 302 301 299 294 293 293 287 283 282 287 286 286 284 285 282 280 283 284 284 282 280 275 273 276 271 272 277 279 280 278 265 265 265 273 276 278 277 268 272 273 273
304 304 304 303 302 300 293 291 292 287 282 284 283 283 283 285 283 280 279 281 282 283 278 273 272 274 275 270 268 268 268 271 273 271 270 267 272 275 277 266 271 271 273 274
303 303 304 303 303 302 294 291 292 287 281 283 285 285 283 282 283 279 278 281 280 278 277 276 274 270 272 269 271 271 269 267 266 265 260 263 276 275 272 275 275 276 276 277
303 303 303 303 303 303 299 290 292 291 284 283 287 287 288 287 286 281 277 280 277 280 274 271 272 268 268 267 265 273 270 273 269 271 270 276 277 277 279 278 276 277 278 278
302 302 303 302 303 303 300 293 290 290 283 281 282 283 288 290 287 287 280 278 281 280 280 273 270 266 272 264 266 268 272 273 271 271 274 275 277 279 278 279 278 279 279 279
301 302 302 302 302 302 301 293 293 290 285 276 278 284 284 288 287 285 285 283 282 281 280 274 269 266 276 269 272 271 273 274 270 270 274 274 277 278 279 279 279 278 278 279
301 301 301 302 302 302 300 297 294 294 285 275 274 279 284 286 286 284 283 283 281 279 274 270 269 273 272 270 273 270 275 274 271 269 276 276 277 278 280 278 278 278 277 277
300 300 300 300 301 301 296 286 294 295 293 284 273 280 278 282 284 282 281 282 280 279 276 274 275 278 276 265 264 277 279 277 278 276 279 279 280 280 279 278 278 278 277 277
299 299 299 300 299 297 287 285 290 297 294 284 277 271 278 281 280 277 280 280 280 278 277 273 276 276 279 274 266 279 278 278 278 279 278 277 277 278 278 278 278 276 275 275
298 298 298 297 297 296 288 292 296 297 287 284 278 269 275 282 276 278 280 278 280 280 280 278 273 278 279 271 277 279 279 278 277 278 279 280 279 276 277 275 273 271 273 272
298 297 297 292 290 285 287 296 296 293 286 279 277 269 266 280 281 281 281 282 276 281 277 276 279 274 272 276 278 278 279 278 279 281 275 276 275 277 274 272 268 271 273 271
296 290 285 281 285 292 294 289 284 284 283 283 276 269 264 278 275 272 276 279 277 273 276 279 276 275 279 280 276 278 280 280 280 271 270 264 269 274 273 271 273 273 271 266
286 282 280 284 292 286 281 276 277 277 275 280 268 268 269 274 268 269 278 273 275 270 271 272 271 268 278 280 279 281 279 279 277 278 279 274 273 273 272 270 268 266 264 261
286 286 288 287 283 279 276 274 271 272 268 267 274 271 271 269 272 269 273 271 272 268 272 271 268 272 278 274 277 280 281 279 274 272 274 268 268 264 265 263 262 259 258 257
285 281 278 278 277 272 270 267 268 264 260 267 270 267 272 272 275 273 272 266 266 266 269 268 267 275 271 268 268 268 261 262 264 261 262 261 259 258 257 257 255 255 253 250
276 275 270 271 269 271 267 265 265 268 266 268 267 272 270 269 272 274 269 271 269 266 264 262 272 263 257 258 257 257 257 257 259 257 257 256 256 254 253 253 253 253 251 248
275 275 269 269 265 258 254 253 259 263 265 272 269 269 275 271 273 274 271 267 266 266 264 263 258 256 255 255 253 252 253 254 253 251 253 253 254 253 250 249 249 249 249 249
276 273 268 258 261 259 258 257 262 266 272 270 272 269 270 271 272 270 268 266 264 263 259 255 256 253 252 251 251 252 252 252 251 251 252 254 252 252 249 246 245 245 247 248
271 267 250 255 258 263 262 262 267 271 272 268 269 268 268 271 266 265 261 260 258 255 255 254 254 253 252 254 251 249 250 250 252 252 251 249 249 249 250 250 246 243 244 244

GFSNW_sfc_thetae_024.txt.gz
Theta_e
316 317 318 318 317 317 314 311 301 314 315 301 301 296 298 300 300 300 297 296 294 291 290 287 286 287 290 293 291 288 290 286 279 284 285 286 285 285 285 282 278 277 278 281
314 316 317 317 317 316 311 303 301 311 314 296 296 299 300 300 298 298 295 294 296 293 290 289 288 289 293 292 292 290 291 284 275 279 283 283 283 284 284 283 282 277 279 280
308 311 311 313 311 312 307 299 292 297 300 302 300 297 296 295 298 297 297 295 295 293 291 292 289 288 291 292 292 296 295 285 282 280 281 284 281 283 283 285 282 283 282 284
306 307 307 308 307 307 303 296 292 295 291 295 297 300 296 294 292 296 297 293 295 294 289 289 289 290 289 290 293 291 292 282 283 283 283 283 283 283 281 281 284 283 284 283
304 305 305 305 305 304 296 292 291 292 291 295 295 297 294 294 295 294 291 292 293 295 292 291 287 289 289 288 287 289 288 284 283 278 283 282 281 283 281 284 284 282 281 281
304 303 303 304 303 301 293 292 293 293 290 290 292 292 294 294 296 292 295 295 293 292 294 294 290 292 292 292 288 286 285 281 276 279 277 279 278 280 282 282 282 284 281 285
304 304 303 302 301 299 295 292 293 289 284 287 289 290 292 292 295 290 289 292 294 287 290 291 289 285 285 288 285 287 284 280 280 274 274 271 278 275 279 284 283 281 277 275
305 304 303 302 300 299 294 293 291 287 284 287 285 286 286 290 291 286 287 285 285 289 289 284 281 279 281 280 278 281 284 282 274 275 272 276 278 276 275 276 276 277 279 278
305 304 304 303 301 299 294 293 294 288 285 284 288 286 285 284 284 282 281 283 285 286 285 282 277 275 278 275 273 278 281 283 282 270 270 270 273 276 278 278 271 274 277 276
304 305 304 303 302 299 293 291 294 289 284 285 285 285 284 287 285 281 280 281 282 284 281 277 276 276 278 274 269 268 274 274 276 274 274 274 274 275 277 270 274 272 274 274
303 304 304 304 302 301 294 290 292 288 283 284 284 285 283 283 286 282 280 281 280 280 279 279 276 275 274 272 273 272 272 272 268 270 270 270 276 275 274 277 276 277 276 276
302 302 303 303 303 302 297 288 291 291 284 283 287 288 287 287 288 283 281 283 279 282 279 277 275 271 271 270 269 273 271 274 271 274 273 276 278 277 279 279 277 276 277 278
302 302 302 303 303 303 299 291 289 287 279 282 282 283 287 290 288 288 281 279 282 281 282 276 274 272 273 266 268 269 272 274 271 272 274 275 277 279 278 278 278 279 279 278
301 301 302 302 303 303 299 291 292 288 282 274 279 284 284 288 288 286 286 284 282 282 281 276 273 271 277 271 273 272 274 274 270 271 274 275 277 278 280 279 279 278 278 278
301 301 301 302 302 302 299 295 294 293 285 277 276 280 283 286 286 284 283 283 281 280 276 273 271 275 273 272 274 270 275 273 272 270 276 276 277 279 280 279 278 278 277 276
300 300 300 301 301 301 295 286 294 294 293 282 275 280 278 282 283 282 281 282 280 279 277 275 276 278 276 267 267 277 276 277 278 276 278 278 279 279 279 278 278 278 277 277
299 300 300 300 301 296 287 284 288 297 294 284 277 272 277 281 279 278 279 280 279 278 276 273 276 276 277 269 267 279 278 278 278 279 278 276 277 278 278 278 278 276 274 274
298 299 299 299 300 295 288 291 296 296 286 284 278 272 276 281 278 277 279 277 277 277 278 275 274 277 276 268 277 279 279 278 277 278 278 280 278 276 277 274 273 271 273 273
298 298 298 293 287 284 286 295 295 291 287 279 278 271 268 280 280 279 278 280 275 280 275 275 277 274 272 275 277 278 278 278 278 276 275 275 274 277 274 272 269 272 273 271
298 292 285 280 285 294 295 289 284 283 282 282 275 267 265 279 275 275 273 275 273 273 275 278 276 273 278 280 276 278 279 278 277 271 271 264 268 274 274 272 274 275 275 269
286 282 280 285 293 283 279 279 276 279 276 280 274 270 270 274 269 271 278 274 276 271 270 271 266 264 278 281 277 280 279 278 276 278 278 273 273 273 272 271 271 269 265 263
286 285 288 287 282 275 273 272 274 270 269 267 272 272 270 269 272 271 276 273 273 267 267 268 263 271 276 272 277 279 277 273 272 271 274 269 270 265 265 263 262 260 259 259
285 281 279 277 277 271 270 268 265 265 259 264 270 268 271 272 274 270 269 269 268 269 270 267 267 271 265 261 262 264 262 261 262 260 261 261 259 258 257 257 256 256 255 253
277 275 271 271 270 268 269 268 262 266 264 270 267 271 270 267 269 272 266 267 265 261 259 261 265 257 256 257 257 255 258 255 258 256 257 257 256 254 254 253 254 254 253 251
272 271 266 266 262 256 252 252 258 261 262 269 268 267 274 268 271 272 268 265 263 262 261 259 255 255 254 254 253 253 253 253 252 251 253 254 253 252 250 248 251 252 252 251
272 267 263 258 260 257 256 255 261 267 270 268 270 267 268 267 270 269 268 266 264 262 252 251 254 251 252 251 250 250 249 248 249 250 251 253 252 252 249 248 249 251 250 250
271 259 249 252 255 259 258 260 266 271 273 269 272 270 269 270 266 264 263 262 255 253 254 255 254 252 251 251 249 250 249 249 247 247 249 247 248 249 250 251 250 250 249 250

GFSNW_sfc_thetae_027.txt.gz
Theta_e
315 314 314 316 317 317 314 311 301 315 317 301 302 297 296 300 301 300 297 294 292 290 289 286 285 285 288 291 291 288 291 287 280 283 285 286 285 285 285 281 278 277 278 281
310 314 315 315 316 316 314 306 305 315 313 295 296 299 299 300 298 300 298 296 295 294 290 288 287 286 292 292 292 289 291 285 278 281 284 284 283 284 285 284 282 277 277 279
308 309 314 315 316 316 312 300 294 299 306 306 300 296 296 296 301 299 299 296 296 292 291 294 288 288 291 291 292 296 296 286 284 284 283 284 282 283 284 285 278 280 283 285
307 307 308 310 311 310 305 298 293 295 294 295 300 300 297 295 295 300 300 294 296 295 291 291 291 290 289 290 294 292 293 285 283 284 284 284 284 283 282 282 285 283 285 284
305 305 306 306 306 306 297 292 291 293 291 294 295 297 297 295 297 295 294 295 296 297 295 295 291 292 289 289 289 289 290 286 283 280 283 283 281 283 283 285 285 284 285 284
304 304 304 304 304 303 294 293 294 294 292 290 291 293 295 296 299 295 298 297 297 294 297 295 291 295 293 293 289 288 288 283 284 282 278 281 280 282 282 283 283 285 280 287
305 304 303 302 303 300 296 293 294 290 285 289 289 290 293 292 296 294 290 295 295 289 292 293 292 288 288 290 286 290 285 284 285 273 276 274 279 276 283 284 284 281 281 278
305 304 304 302 302 301 295 294 292 289 285 287 285 288 289 290 289 286 287 286 286 293 290 285 282 281 283 280 278 283 285 284 277 275 275 278 277 276 279 280 279 280 284 282
304 305 304 303 301 300 295 293 295 290 285 285 288 285 286 284 283 282 281 284 285 288 285 283 279 276 279 276 275 279 283 285 284 274 273 272 275 276 278 279 275 276 284 282
302 304 305 304 301 299 293 292 295 290 285 285 287 285 285 287 285 281 281 282 284 284 282 279 278 276 279 275 273 273 276 276 279 276 275 277 276 275 278 273 277 274 276 275
302 303 304 304 302 299 292 289 293 290 284 284 285 286 286 285 285 282 280 282 281 281 281 280 278 277 276 275 273 274 275 275 274 275 273 273 277 276 276 279 277 276 276 277
302 302 303 304 303 300 295 286 291 290 283 283 287 288 288 288 291 284 282 283 280 283 280 280 277 274 273 274 273 274 275 279 276 278 277 277 279 279 280 280 278 277 277 278
301 302 302 303 303 303 297 288 288 286 279 280 280 283 287 289 288 290 283 282 284 284 283 280 277 276 276 270 271 272 274 275 274 275 275 276 278 279 279 279 278 279 279 278
301 301 302 302 302 302 298 290 290 287 280 273 278 284 283 288 288 287 286 284 283 282 282 278 276 275 277 274 276 275 276 275 272 272 274 276 278 278 280 280 279 278 277 278
300 301 301 302 302 302 299 294 293 291 285 275 274 279 283 285 286 284 284 283 281 280 278 276 274 276 275 274 274 272 275 273 272 272 277 277 278 281 280 279 280 278 277 276
298 299 300 301 301 302 295 286 292 294 293 282 278 278 277 282 283 282 282 282 281 280 278 276 277 278 277 270 269 277 277 277 278 277 279 279 279 280 279 279 279 278 278 278
297 299 300 300 301 297 288 285 289 296 294 283 276 271 279 281 279 277 279 280 279 278 277 274 276 276 277 270 269 276 277 278 278 279 278 276 277 278 279 279 278 276 274 274
298 298 299 300 300 298 289 293 297 296 287 285 277 270 276 281 278 277 279 277 277 276 275 275 274 276 275 268 276 278 278 278 277 278 278 279 278 277 276 274 273 272 273 274
297 298 298 294 289 284 286 296 298 292 287 279 277 270 269 280 280 278 279 279 271 277 272 275 275 269 269 275 277 278 278 277 278 277 276 275 274 277 272 272 268 272 274 272
297 290 285 281 284 294 292 288 283 282 282 281 272 264 268 279 278 275 272 273 272 268 272 278 275 271 278 280 278 277 278 278 276 271 270 265 268 272 274 272 273 274 274 271
289 282 280 286 293 285 281 278 278 279 275 279 270 267 272 275 270 267 276 271 273 269 267 269 266 265 277 280 277 279 279 277 275 276 276 273 273 273 273 270 271 271 268 265
285 285 287 285 280 276 274 274 274 273 273 273 272 271 268 269 273 273 276 273 273 266 265 269 266 270 265 263 265 267 266 265 267 267 271 269 270 266 266 264 262 260 260 259
285 282 280 278 277 271 268 266 267 264 260 266 269 268 271 272 275 274 274 270 269 270 269 265 266 264 259 257 258 258 260 259 261 261 260 261 259 258 257 257 256 256 255 253
278 275 271 271 270 272 265 264 265 265 266 267 268 271 269 270 272 273 269 269 270 266 263 261 257 255 254 255 254 252 254 254 255 255 256 256 256 254 253 253 253 254 253 252
274 275 269 268 259 256 252 250 259 262 267 271 269 267 273 265 270 273 268 265 264 261 260 256 254 253 252 252 251 250 250 251 251 250 251 253 252 251 249 249 250 251 251 251
270 265 266 261 266 260 256 254 263 266 269 266 269 266 268 270 270 270 267 264 261 260 253 254 254 252 251 249 249 248 247 246 247 249 249 251 250 249 247 247 248 249 250 250
263 256 251 253 258 259 255 255 266 269 265 262 265 264 266 270 267 266 261 265 259 257 256 256 254 252 251 249 248 247 247 248 248 248 248 247 246 247 249 249 247 248 248 249

GFSNW_sfc_thetae_030.txt.gz
Theta_e
310 311 316 315 314 314 313 310 300 315 317 300 301 295 299 301 301 301 300 298 299 293 292 291 291 290 295 295 294 290 295 292 287 288 290 291 294 292 290 288 283 285 284 288
309 310 311 314 314 315 312 305 305 315 313 294 295 299 299 301 299 300 300 297 298 298 294 291 292 293 296 295 294 293 294 290 286 287 288 289 288 289 291 292 288 287 285 287
308 309 309 311 315 315 311 304 297 303 307 305 299 296 296 296 302 300 302 300 301 297 294 295 294 292 294 295 296 297 298 292 290 287 290 292 287 288 289 290 287 288 287 290
308 307 308 308 309 314 308 299 295 297 295 299 300 299 298 295 295 300 301 297 299 298 293 294 293 295 292 293 295 295 295 289 291 293 292 291 290 289 288 288 290 288 291 289
307 307 306 306 306 306 302 291 291 294 292 295 299 299 296 295 297 297 295 296 298 298 295 297 295 297 296 293 292 291 293 289 291 287 290 289 287 290 289 289 291 291 291 290
304 305 305 304 304 303 295 294 295 294 292 291 291 296 297 296 299 300 301 299 298 296 298 302 301 300 299 297 292 290 290 289 285 285 286 284 282 286 288 289 291 291 286 292
302 305 305 303 303 302 297 294 295 290 285 289 289 291 293 293 294 296 294 297 298 299 296 295 292 289 289 292 289 291 290 288 287 285 281 277 286 285 292 290 291 291 289 289
302 302 305 303 303 302 297 295 293 290 285 289 288 290 291 292 289 287 289 287 287 296 292 286 284 283 284 282 279 284 288 288 281 278 279 285 277 281 286 286 287 289 290 289
303 301 304 303 303 302 297 295 296 291 286 286 289 288 288 287 286 283 282 285 286 290 287 284 281 278 283 279 279 282 285 288 285 278 279 278 283 281 284 288 282 284 289 287
302 303 303 304 302 301 297 294 297 291 285 287 288 286 286 288 286 283 282 284 285 286 284 281 281 280 282 278 279 278 280 280 282 280 279 281 286 281 282 280 285 284 288 286
301 302 303 303 302 300 296 292 295 292 286 287 286 288 287 286 286 283 283 284 283 283 283 283 281 279 279 278 278 279 280 279 279 280 279 278 281 279 281 285 281 283 283 283
300 301 302 303 303 301 296 290 293 292 287 286 288 289 289 289 292 285 283 284 284 287 284 283 280 277 277 278 276 276 278 283 281 282 282 280 282 282 284 284 283 281 283 283
299 300 302 302 303 302 297 291 291 289 284 284 285 284 288 290 290 292 286 284 287 285 286 283 281 278 279 277 278 276 278 278 280 280 279 279 281 281 282 282 283 283 284 283
299 300 301 302 302 302 295 291 292 289 284 280 282 285 286 289 289 289 289 287 285 284 285 282 281 280 279 279 279 279 280 279 276 275 276 278 280 281 282 282 282 282 281 282
298 299 301 301 302 302 297 293 293 293 289 281 280 282 285 286 287 286 287 286 284 282 281 280 279 279 278 276 276 277 278 276 276 277 279 280 281 283 283 282 282 282 281 280
297 298 298 300 301 301 295 286 292 294 294 285 279 281 281 283 285 284 284 284 283 283 282 279 279 280 279 277 276 279 279 280 282 279 281 281 282 283 283 282 283 282 281 281
297 298 297 300 300 297 289 287 292 296 294 284 279 277 281 282 282 281 281 282 282 282 280 279 278 278 280 276 275 277 279 280 280 281 280 278 279 280 281 281 281 280 279 279
296 297 297 298 300 298 290 293 297 296 287 285 278 274 277 282 279 278 281 280 281 280 279 279 278 278 278 274 277 278 279 279 279 279 280 281 280 279 279 278 277 276 277 277
295 297 297 294 292 285 287 298 298 293 289 282 278 274 272 282 280 280 281 281 276 280 277 278 279 275 273 278 278 279 279 278 280 280 278 277 277 279 277 276 274 276 278 276
295 292 285 283 285 294 296 286 284 283 284 284 276 274 274 280 279 277 278 278 275 273 276 279 276 274 279 280 280 280 280 280 279 275 274 272 274 276 277 275 277 277 278 276
288 284 282 286 293 286 284 279 280 279 277 280 274 273 275 280 276 276 278 276 277 272 273 274 273 273 274 267 269 269 269 270 275 277 279 279 279 278 277 275 275 275 273 271
287 286 288 285 282 278 276 275 276 276 274 273 273 273 276 276 280 278 278 275 275 271 274 274 269 273 263 261 261 262 262 261 264 266 268 270 271 269 270 269 268 266 265 264
286 283 281 279 278 272 270 268 269 270 270 272 273 273 276 276 278 277 275 272 272 273 272 270 272 262 260 257 257 257 258 258 260 261 262 263 261 260 260 261 259 260 259 258
280 276 271 274 271 273 272 270 270 272 272 272 274 273 276 275 275 275 271 270 272 269 268 268 262 258 255 255 255 253 254 254 256 256 258 258 257 255 255 255 257 257 256 256
275 276 270 270 264 260 258 258 267 267 274 275 273 273 275 272 273 274 269 267 267 269 268 262 258 255 253 253 252 251 252 252 253 254 254 255 254 254 253 252 254 255 255 255
270 265 267 263 267 264 263 265 268 268 273 274 274 270 269 268 270 267 266 266 264 266 259 257 257 254 253 252 251 251 250 250 251 252 253 253 252 252 251 252 252 253 254 253
266 261 258 258 263 262 260 261 267 270 272 270 269 266 267 272 268 264 261 263 258 257 257 257 255 254 253 252 252 250 250 250 251 251 251 251 251 251 254 253 252 253 253 252

GFSNW_sfc_thetae_033.txt.gz
Theta_e
308 310 310 312 315 315 312 308 300 315 317 299 300 294 298 300 300 304 301 301 299 297 298 293 293 294 299 300 298 293 299 296 292 291 294 296 296 293 293 288 285 287 288 290
307 308 310 310 311 314 310 302 304 315 312 294 294 298 298 299 299 300 300 298 300 302 297 291 296 298 302 300 297 296 297 292 288 290 290 291 289 292 293 292 290 288 286 290
305 307 309 309 309 313 309 303 296 304 307 304 298 295 295 295 301 300 302 300 301 299 298 298 297 297 298 299 298 299 298 294 292 289 292 294 288 289 291 291 287 288 289 292
304 306 308 308 308 308 309 301 295 297 295 298 299 298 298 295 294 301 301 298 299 298 294 296 294 298 295 295 296 296 296 289 294 294 296 296 293 291 290 288 290 288 292 292
304 305 306 307 307 306 300 292 292 295 293 295 298 297 295 295 298 298 296 295 299 299 296 298 295 297 297 294 293 292 294 288 292 289 294 294 291 293 293 290 291 291 293 293
304 304 304 306 305 304 296 295 299 295 290 291 291 295 296 296 299 300 301 299 298 296 299 303 304 303 300 300 295 290 290 288 287 285 290 290 283 289 291 293 293 293 289 294
303 304 303 305 305 305 299 296 296 290 285 288 288 290 292 296 298 296 300 301 298 302 305 300 295 291 292 295 298 295 290 287 287 285 285 279 290 298 295 293 295 295 294 292
302 303 303 302 305 305 302 297 294 289 285 289 290 291 290 291 291 288 290 289 289 292 297 287 286 284 285 285 285 289 294 290 286 283 283 289 291 284 289 290 291 296 294 292
300 302 302 302 305 305 302 300 299 291 286 287 291 290 291 286 285 284 285 286 287 290 288 285 284 281 286 281 281 283 285 292 287 281 282 281 289 288 290 293 286 292 293 290
299 300 302 301 303 304 300 299 300 292 286 290 289 286 287 289 287 284 284 285 286 286 285 284 284 284 286 282 281 279 282 285 283 284 283 285 288 284 289 283 287 287 292 288
298 299 301 302 302 304 300 297 299 295 288 289 288 289 287 286 287 285 284 285 284 284 284 284 283 282 282 283 285 283 283 281 281 284 282 281 283 282 285 287 285 287 290 287
297 298 300 301 302 303 300 295 296 295 291 288 290 290 290 288 289 287 284 285 285 287 286 285 283 280 280 282 280 280 281 286 285 286 284 281 283 283 285 285 287 284 286 287
297 298 299 301 301 302 299 296 294 293 288 287 286 286 289 291 290 292 287 286 288 286 287 286 283 281 282 280 281 280 280 281 283 283 280 281 281 283 283 284 284 285 286 285
296 297 298 300 301 302 298 295 296 293 290 285 284 287 286 289 290 289 289 288 287 287 287 285 284 282 281 281 281 282 281 281 280 277 278 279 282 283 284 284 283 283 283 285
295 296 297 299 300 301 298 296 295 295 291 285 283 284 286 287 289 288 289 288 286 286 284 284 282 281 280 278 278 279 280 279 278 278 281 284 283 286 286 283 283 283 282 280
294 295 297 298 300 301 295 285 293 295 294 286 281 284 283 285 286 286 288 287 285 285 284 281 280 280 282 280 280 280 282 281 283 280 284 283 284 285 285 284 283 283 282 282
294 295 297 298 299 297 289 288 294 297 297 286 279 279 282 283 284 283 283 284 283 285 282 281 280 279 282 279 277 280 281 282 281 282 282 280 281 281 283 283 283 283 280 281
294 296 297 298 298 298 291 296 297 297 288 285 281 276 279 283 281 280 283 281 283 282 281 280 279 279 280 276 279 281 281 281 280 281 281 282 281 281 280 279 278 277 278 278
294 296 296 295 291 285 288 297 298 295 289 283 281 276 275 283 281 282 282 283 279 281 279 279 281 277 276 279 279 279 280 280 281 281 279 278 279 280 278 277 276 277 278 277
294 293 285 283 285 294 297 291 285 284 284 285 281 282 276 282 281 280 280 281 278 274 278 280 277 277 278 272 272 272 271 272 278 277 277 276 276 277 277 277 278 278 278 276
288 284 284 288 294 288 285 281 281 282 278 282 278 280 276 282 279 278 280 278 278 273 276 276 275 274 271 267 267 267 267 267 269 270 273 275 277 278 278 277 276 275 273 272
288 288 288 285 284 282 278 278 278 279 276 276 277 278 281 279 284 280 279 277 277 272 277 276 272 272 263 262 261 262 262 261 262 265 266 267 267 266 269 269 269 267 266 265
288 285 282 281 279 273 273 270 272 273 276 276 277 276 278 279 281 279 278 274 273 277 274 272 274 264 262 258 258 258 259 259 260 261 262 263 261 261 261 262 261 262 260 260
282 278 274 275 273 274 275 276 277 277 279 277 280 276 279 279 277 277 274 273 275 271 269 271 266 259 256 257 256 254 255 255 257 257 259 258 258 257 256 257 259 259 258 258
278 278 272 273 268 266 266 267 273 273 280 279 277 278 278 276 275 274 271 269 269 271 271 265 261 257 256 255 254 253 253 253 255 255 256 256 256 255 254 254 256 257 256 256
271 267 269 268 270 267 269 272 272 274 280 280 280 275 274 272 274 271 270 270 268 267 261 259 259 255 254 254 253 253 252 253 254 254 255 254 253 253 254 254 254 255 255 256
267 262 262 263 266 264 265 268 269 273 278 274 276 272 271 274 270 266 261 263 259 259 258 257 255 254 254 253 254 252 252 253 253 254 254 253 254 255 255 254 254 255 254 253

GFSNW_sfc_thetae_036.txt.gz
Theta_e
304 305 308 309 311 312 311 307 298 313 315 300 299 294 296 298 298 302 300 298 297 296 295 292 291 291 296 300 299 293 296 294 283 286 290 292 291 290 290 283 282 285 282 286
304 304 306 308 310 310 308 301 301 314 312 294 294 297 296 298 297 297 298 298 298 299 296 292 293 294 299 300 298 294 296 290 285 285 287 288 287 290 292 292 287 285 281 285
303 303 305 307 309 309 305 301 295 301 306 304 298 293 293 294 300 298 300 299 300 297 296 298 294 294 297 298 298 299 299 292 290 286 288 291 284 287 290 290 284 284 287 289
304 304 305 306 308 308 303 301 296 298 293 297 298 298 295 293 293 298 300 297 297 296 292 294 294 295 293 294 297 297 296 288 291 293 294 292 288 287 288 287 288 286 289 289
303 304 305 305 306 307 299 293 292 295 293 295 294 298 294 294 295 297 294 295 297 298 294 295 293 296 294 291 292 291 293 287 290 288 291 291 289 292 289 289 289 290 290 290
303 303 304 304 304 306 298 296 297 295 293 293 291 289 292 295 298 299 300 298 297 296 298 301 302 301 299 297 291 289 289 288 286 285 288 287 285 289 291 291 291 291 286 292
300 302 303 304 303 305 301 297 295 290 285 289 290 291 293 292 292 291 298 300 298 301 303 304 298 294 294 297 297 294 288 288 287 286 286 279 289 294 295 293 294 295 293 293
298 300 301 302 304 304 300 298 295 289 284 289 289 289 290 292 293 290 288 290 289 292 299 292 291 289 289 291 294 295 294 290 285 283 284 288 289 284 288 289 290 296 295 295
297 299 299 301 303 303 300 298 298 290 285 285 291 290 290 288 285 285 286 286 288 290 293 289 285 284 286 285 284 283 292 294 287 283 282 280 283 283 288 292 285 291 294 294
297 297 299 299 301 303 299 298 299 291 285 290 289 287 287 290 287 286 285 285 287 287 285 287 286 286 288 282 282 278 283 286 285 285 284 286 282 280 286 283 283 281 285 287
296 297 298 299 300 302 299 296 300 294 287 289 289 290 287 286 287 285 284 285 284 284 283 284 283 283 283 283 282 280 284 283 284 285 284 281 283 281 285 284 281 283 284 284
296 296 298 298 299 301 301 293 298 297 290 288 291 291 292 290 289 287 285 286 285 287 285 284 284 281 280 281 279 281 281 284 285 284 283 280 281 282 283 283 283 283 286 286
295 296 297 298 299 300 301 295 293 292 286 286 284 286 290 292 291 292 286 285 287 285 286 285 283 280 282 279 280 279 280 282 282 282 280 280 283 285 284 283 283 283 283 285
295 295 296 297 298 299 301 293 294 293 286 280 280 287 286 289 290 290 290 288 287 286 286 285 284 281 282 281 281 281 281 282 279 276 279 281 283 284 285 286 282 281 281 281
294 295 295 297 298 298 299 296 296 296 288 280 279 281 284 287 289 289 290 288 286 285 284 283 281 281 280 279 278 278 279 280 280 279 282 284 284 286 286 285 283 280 280 279
293 294 294 295 297 297 295 285 293 295 294 283 273 282 281 282 285 287 287 287 285 285 284 281 280 280 281 279 277 280 280 281 285 281 284 285 285 286 285 283 281 281 280 281
293 294 294 294 296 294 288 286 290 296 294 284 277 277 282 281 281 280 281 283 283 284 282 280 279 278 282 278 274 280 280 281 280 283 282 279 279 279 281 282 282 281 279 279
293 293 294 295 296 295 292 293 297 296 287 285 280 275 278 282 279 275 280 279 280 280 280 278 278 278 279 273 280 279 279 279 279 280 279 279 279 279 278 278 277 275 276 276
292 293 294 293 291 285 287 297 298 295 288 282 277 271 273 281 280 278 276 280 273 278 274 277 278 273 271 274 277 275 272 275 276 277 276 276 277 276 275 274 273 274 275 274
292 290 285 282 285 294 296 291 285 284 285 285 277 275 273 281 279 275 274 276 271 266 273 278 271 269 272 270 269 268 268 268 270 274 274 273 273 274 275 274 274 274 274 272
287 284 283 287 293 290 285 281 280 281 278 281 273 274 275 280 272 271 277 272 271 266 268 268 264 264 268 266 265 265 265 265 266 267 269 270 270 271 272 272 269 268 268 266
287 287 287 285 283 283 279 278 279 278 275 274 272 272 275 274 279 272 273 270 273 265 269 266 264 266 262 261 260 261 260 259 261 262 263 264 264 263 264 263 262 262 262 262
286 284 281 279 279 274 273 271 273 271 275 275 275 274 275 275 279 274 276 269 268 274 266 263 262 262 258 257 257 257 256 257 258 259 260 260 259 258 257 258 259 258 258 257
278 277 273 274 272 274 272 267 274 275 275 276 278 276 276 275 273 275 270 273 270 267 261 262 258 254 252 254 254 252 253 253 255 255 256 256 256 255 254 255 255 255 254 254
277 276 268 273 266 266 263 265 266 271 279 279 275 275 277 273 274 274 271 268 266 265 262 256 255 253 254 253 252 250 251 251 252 252 252 253 253 252 252 252 252 253 254 253
269 262 264 263 266 264 265 270 273 277 280 277 278 275 274 272 272 270 269 266 262 258 253 256 257 254 253 252 251 250 249 249 250 249 250 251 251 250 249 250 252 252 252 252
265 261 259 260 261 261 261 265 265 269 279 274 276 272 271 274 268 261 254 253 254 256 255 255 254 253 251 252 251 250 249 248 248 247 248 248 249 251 253 252 251 251 251 252

GFSNW_sfc_thetae_042.txt.gz
Theta_e
303 304 306 305 305 306 305 299 291 307 314 297 298 294 294 295 293 297 295 295 294 291 292 290 288 288 291 295 294 290 293 292 282 284 288 288 288 287 288 282 280 281 280 287
303 303 304 305 305 305 298 294 293 306 310 291 292 297 297 298 294 294 294 294 295 295 292 290 290 290 294 295 294 291 294 288 280 282 285 286 285 288 292 288 283 284 280 286
301 302 302 304 305 305 299 293 286 293 301 299 295 292 294 294 299 296 296 296 297 295 294 295 290 290 294 295 296 298 298 291 287 284 286 287 284 286 288 290 285 285 285 289
301 302 301 303 304 305 297 292 289 289 288 290 294 293 294 292 292 297 297 294 295 293 291 292 292 295 292 293 296 296 296 289 290 292 290 288 286 288 288 287 289 285 290 290
300 301 302 301 301 304 293 288 287 290 289 291 292 292 291 287 294 295 293 292 294 295 292 294 292 294 294 293 293 294 294 289 291 288 291 288 287 287 288 289 290 290 291 290
299 300 301 301 301 300 292 292 296 293 289 288 287 288 291 291 293 293 297 296 294 294 295 298 300 298 299 297 295 292 290 291 288 285 289 286 284 289 288 288 291 290 286 292
298 299 300 300 300 299 295 293 292 288 284 287 287 289 292 292 292 290 295 297 294 299 300 300 300 297 297 296 295 297 289 290 289 286 286 280 289 294 296 293 293 292 292 294
298 298 299 300 300 299 295 296 293 289 283 285 285 287 289 290 291 290 291 294 296 298 296 288 289 289 287 291 294 293 296 291 286 284 284 286 289 287 289 289 291 297 295 297
297 297 298 299 300 299 295 293 298 291 283 284 288 287 288 285 286 286 287 286 288 294 290 285 283 284 286 286 287 294 294 294 288 283 282 280 289 288 293 292 287 295 296 297
297 297 297 298 299 299 295 292 297 292 284 288 288 284 284 288 287 283 285 285 286 287 287 284 284 283 287 284 284 283 287 288 285 285 284 285 285 282 292 285 286 280 287 292
296 296 296 297 298 299 296 292 296 292 285 288 290 291 287 287 285 284 281 285 285 284 284 285 285 284 286 285 286 285 286 285 285 285 283 281 282 284 288 285 281 281 282 283
296 296 296 296 297 298 297 290 295 297 288 286 290 291 291 291 290 290 286 286 284 289 286 285 283 283 283 286 282 283 284 289 287 288 286 281 282 281 283 282 279 281 283 282
296 295 296 296 296 297 296 291 292 292 285 285 285 286 288 291 292 294 287 286 288 286 287 286 283 280 280 280 280 277 282 284 284 285 283 281 282 285 286 283 282 282 282 284
295 295 295 295 295 296 296 291 294 292 285 281 283 286 288 290 290 291 292 290 288 288 287 285 282 279 282 278 279 278 280 284 279 278 281 281 283 285 287 285 285 284 283 282
295 294 294 294 295 295 294 291 293 294 287 280 279 282 285 287 290 290 290 289 286 285 283 283 282 282 279 276 280 278 281 281 279 280 284 286 285 287 288 286 285 283 281 281
294 294 294 294 294 295 288 278 290 295 292 280 275 282 277 283 288 288 287 287 285 285 284 282 282 281 281 278 277 280 282 283 286 284 285 283 282 286 287 286 285 282 280 281
293 293 294 294 294 289 285 278 288 296 293 282 275 275 281 282 284 283 283 284 284 284 283 281 281 280 283 280 273 278 280 281 281 282 285 284 279 281 284 285 283 281 279 278
293 293 293 294 294 292 287 290 294 294 287 284 276 274 277 282 278 278 281 281 282 281 280 279 279 280 281 277 275 274 274 278 277 277 279 279 278 278 277 278 278 278 277 276
293 293 293 288 284 281 283 293 294 292 286 279 275 272 271 281 279 277 277 280 276 277 277 278 280 275 276 273 273 270 268 270 271 274 275 275 275 275 274 275 275 275 274 273
292 286 279 278 282 291 292 285 281 284 283 282 275 272 271 279 276 271 268 269 265 263 270 276 275 270 269 266 266 265 265 266 267 270 271 270 270 271 270 269 269 270 270 269
284 278 278 279 292 281 277 276 277 279 278 281 276 274 275 278 269 267 275 270 262 265 266 267 261 264 267 265 262 262 263 264 263 266 266 266 266 268 268 266 264 264 264 263
281 282 285 283 282 278 275 272 277 276 276 274 274 273 277 277 275 271 271 264 263 261 260 263 264 265 259 258 258 258 258 258 259 260 261 261 261 262 262 261 260 259 259 260
277 273 274 277 276 272 265 266 271 272 274 275 273 274 276 274 275 269 273 265 265 266 263 265 261 259 256 254 255 255 255 256 256 257 257 257 256 256 256 256 255 255 255 254
272 273 266 271 269 265 270 261 268 273 272 269 278 273 274 275 271 273 268 267 268 264 263 263 254 254 252 252 251 249 251 252 254 253 254 254 254 253 252 252 252 252 252 251
275 271 262 263 260 265 265 266 267 270 270 277 276 276 277 273 272 273 269 267 263 263 262 252 253 252 252 251 250 249 250 251 250 250 251 252 252 251 250 249 250 251 252 252
267 259 260 258 263 261 260 259 265 264 264 276 279 275 273 271 271 268 265 265 262 257 247 250 252 251 250 248 249 250 250 250 249 249 249 251 250 249 247 248 249 250 250 250
259 255 251 252 250 253 256 254 257 260 261 274 276 271 270 271 263 258 251 248 247 248 249 251 251 251 250 249 250 250 250 249 249 247 248 247 246 247 251 250 246 246 246 246

GFSNW_sfc_thetae_045.txt.gz
Theta_e
302 304 303 305 305 305 301 293 289 301 313 294 296 291 296 295 293 297 294 294 294 290 291 289 288 288 290 294 293 289 292 290 281 284 287 288 286 286 288 281 279 280 280 285
301 301 303 303 305 305 294 287 289 300 307 287 288 293 294 297 294 295 293 293 293 293 293 290 291 289 293 294 293 291 294 288 276 281 285 285 285 287 290 288 283 283 278 285
301 301 302 302 303 305 297 287 282 289 293 295 291 289 289 291 299 296 296 294 296 294 292 295 289 289 292 294 294 297 297 290 285 284 284 286 283 285 288 288 283 284 285 289
300 301 301 302 302 304 297 288 283 286 285 286 289 291 292 289 290 298 297 294 294 293 290 291 290 291 291 292 295 295 295 288 289 291 291 287 285 285 287 287 289 285 289 289
299 300 301 302 301 303 294 286 282 286 286 287 289 287 288 288 290 292 293 292 294 294 292 293 291 293 292 292 292 292 294 287 289 287 290 290 286 286 287 288 290 290 291 290
299 299 299 300 301 300 291 292 289 288 284 284 284 286 288 287 291 294 295 295 294 293 295 298 299 298 299 297 295 291 291 289 286 284 288 288 283 288 289 288 290 290 287 292
299 299 299 300 300 300 293 291 290 284 279 284 283 286 287 287 289 289 293 295 292 295 301 300 298 296 295 295 296 297 289 289 288 285 286 279 289 295 294 292 292 292 292 295
299 299 299 299 300 300 294 294 290 285 280 282 282 285 286 287 291 289 289 291 295 298 295 289 288 288 289 290 293 295 297 291 287 284 284 288 288 289 288 288 290 296 294 295
298 298 298 299 299 299 296 293 294 287 282 281 285 283 285 284 285 285 287 286 288 294 288 284 282 283 286 285 287 294 294 295 289 283 282 280 289 291 294 292 287 296 295 296
298 298 298 298 298 299 295 292 294 288 283 286 285 284 283 286 283 283 284 286 287 288 285 282 283 283 286 282 284 285 287 288 285 286 284 285 286 283 291 285 286 281 285 291
298 298 298 298 297 297 296 293 295 288 284 285 287 289 284 286 286 284 281 284 285 285 284 283 284 284 285 285 286 285 286 285 285 286 283 282 283 286 287 285 281 281 282 282
297 298 298 297 297 297 297 290 295 294 285 286 290 291 291 292 291 287 283 282 279 287 285 285 285 284 284 286 281 283 285 288 286 286 286 284 283 283 283 282 279 280 281 281
297 297 297 297 296 297 295 290 292 291 284 284 284 284 289 291 291 294 287 286 286 284 283 282 283 280 285 282 284 280 282 283 287 287 284 280 282 284 284 282 281 281 281 282
296 297 297 296 296 296 296 287 289 290 285 280 281 286 287 290 291 292 293 290 289 289 288 285 284 282 283 280 284 283 283 285 284 284 279 281 281 283 285 285 285 285 282 282
296 296 296 296 296 295 292 288 290 292 285 279 274 279 283 286 290 290 291 290 287 285 283 283 282 283 282 279 280 279 282 283 284 283 284 285 284 286 287 286 286 286 282 281
295 296 296 295 295 294 287 277 286 291 291 282 276 280 278 283 286 288 288 290 287 286 284 284 283 282 282 279 279 282 283 283 286 284 284 282 284 287 288 287 286 282 281 281
295 295 295 294 294 288 282 277 284 292 291 281 277 269 280 282 284 284 283 285 285 285 284 281 280 279 282 281 277 276 277 279 279 281 285 281 280 284 287 286 283 280 278 277
294 294 294 294 294 292 286 288 293 293 286 283 275 269 272 282 279 279 283 281 282 282 282 280 279 279 281 278 277 275 275 278 277 277 279 280 278 278 279 280 280 278 277 276
293 293 293 288 287 280 281 292 293 290 285 276 274 268 268 281 280 280 278 282 276 279 278 279 280 277 277 277 275 272 269 271 272 276 276 276 275 275 275 276 276 275 274 273
292 288 281 277 279 289 290 282 273 274 282 280 274 275 273 278 277 275 275 275 274 273 276 278 276 275 268 266 266 266 266 267 267 273 272 272 272 272 270 269 270 270 270 268
285 280 275 278 289 281 280 276 274 270 267 279 272 278 275 280 270 271 276 272 268 267 267 272 269 264 268 264 262 263 263 265 264 267 268 268 270 270 268 266 266 266 265 263
283 281 284 282 276 273 273 266 265 266 266 275 269 273 277 278 278 275 272 270 265 264 260 263 263 266 261 261 260 259 260 260 260 262 263 263 263 264 263 261 261 260 260 260
282 276 271 275 267 268 269 264 262 264 268 267 271 274 276 277 278 275 273 270 268 266 265 264 263 259 256 255 255 256 256 257 258 258 258 258 258 257 257 257 256 256 255 255
272 271 265 268 266 272 270 267 262 267 270 274 277 272 274 278 275 275 270 269 270 265 264 262 254 253 252 253 251 249 251 253 254 254 255 255 255 253 253 252 252 254 253 251
271 268 267 263 260 266 266 265 265 263 263 274 276 276 278 273 273 274 269 265 264 263 262 252 252 252 252 251 250 249 250 251 251 251 252 252 252 251 250 250 250 252 252 252
266 260 263 254 258 259 259 256 258 260 259 264 276 275 273 271 271 266 262 265 263 257 244 249 251 250 250 250 250 250 250 250 250 250 251 251 250 249 247 249 249 249 250 251
260 254 253 251 252 253 253 253 256 258 259 269 271 271 267 270 263 259 251 249 247 247 247 249 250 250 250 250 250 250 250 250 250 249 249 247 245 247 251 249 246 247 247 248

GFSNW_sfc_thetae_048.txt.gz
Theta_e
302 302 304 304 305 305 299 290 285 298 310 292 293 289 292 295 292 296 296 294 293 290 289 288 286 287 289 292 292 288 291 288 281 284 286 286 285 285 286 280 278 279 279 284
302 301 301 303 304 304 293 286 286 296 303 285 286 290 291 293 294 294 294 293 294 294 293 289 289 288 292 293 293 291 292 288 278 282 284 284 284 286 288 286 283 281 277 284
301 301 301 302 303 304 298 287 280 286 294 294 289 287 287 288 294 294 296 295 295 291 292 295 290 289 291 293 293 297 297 290 286 283 283 285 282 284 287 289 283 284 284 288
300 300 301 302 303 303 297 289 282 284 282 282 284 289 290 287 286 294 296 293 294 293 290 290 290 291 290 291 294 294 295 287 287 290 288 285 285 284 286 287 288 283 288 288
300 299 300 301 302 302 294 286 282 284 282 284 286 286 282 285 289 290 289 291 293 293 290 291 288 292 290 290 290 292 294 287 289 286 289 288 286 285 287 287 289 289 289 289
300 300 299 300 301 300 288 292 292 288 283 281 280 281 284 285 287 289 293 292 291 292 294 297 298 297 297 296 293 289 291 288 286 284 288 287 284 287 289 289 291 290 285 291
300 300 300 299 300 300 290 290 291 284 277 282 281 282 283 283 286 286 289 292 292 294 297 297 297 296 295 295 295 296 289 288 287 285 284 278 289 292 293 291 292 293 292 294
300 300 300 300 299 300 293 294 290 285 277 281 281 282 283 283 284 285 289 290 293 296 294 288 285 285 287 289 292 293 295 291 286 284 283 287 288 288 288 287 289 294 293 294
300 300 300 300 299 300 292 294 294 288 280 278 283 279 281 279 279 282 287 287 288 293 287 285 281 279 284 284 286 292 294 295 288 285 281 279 289 293 292 291 285 295 295 295
299 299 299 299 299 299 293 292 295 288 281 282 283 278 281 283 280 281 273 283 286 288 284 281 280 282 286 282 283 283 286 287 285 285 283 283 286 283 291 284 286 281 285 291
299 299 299 299 299 299 295 291 294 289 283 281 285 287 285 286 284 280 279 282 284 285 282 282 282 283 285 283 285 285 286 284 284 286 283 281 285 285 287 287 281 282 283 283
298 298 298 298 298 298 297 288 292 293 286 284 288 288 289 290 289 286 284 282 276 286 283 284 285 283 284 284 281 286 283 286 285 286 286 290 285 288 286 284 282 282 283 281
298 298 298 298 298 298 296 287 290 290 284 284 284 282 287 291 290 292 285 286 286 283 285 280 282 280 282 280 281 282 285 285 287 287 287 286 286 284 284 283 283 283 283 283
297 297 297 297 298 298 297 288 288 289 285 279 279 284 284 289 290 291 292 290 291 289 287 286 284 282 282 278 283 281 282 285 286 284 284 282 284 282 284 283 284 283 283 282
296 296 296 297 297 297 294 289 289 291 283 277 278 281 283 286 288 289 291 291 288 286 284 283 283 282 282 276 280 280 282 283 284 285 285 287 287 285 285 286 286 285 282 281
295 295 296 297 297 297 289 282 288 290 290 281 274 278 276 279 283 287 287 289 289 287 286 285 285 285 283 279 279 283 282 283 284 285 285 284 284 285 287 286 286 282 281 281
294 295 296 296 297 291 283 276 283 291 290 274 270 271 276 280 283 285 284 286 285 285 285 283 282 281 283 279 278 280 279 282 280 282 283 282 284 285 287 286 281 279 277 277
294 295 296 296 296 292 287 288 292 293 286 281 272 267 273 281 279 278 283 280 283 283 283 281 279 280 282 278 280 276 276 277 277 277 278 280 280 284 282 281 280 278 276 275
294 295 295 291 287 282 280 292 293 289 282 275 275 267 264 280 276 276 278 280 275 280 278 278 279 276 276 277 277 274 272 275 276 276 277 277 278 278 279 279 278 276 274 273
294 289 283 279 277 290 290 284 277 277 281 280 269 267 271 279 278 275 271 273 274 271 276 280 276 273 270 268 265 267 267 267 269 274 274 274 274 274 274 273 273 274 271 270
285 280 277 280 290 280 275 273 271 263 268 274 272 274 273 279 273 274 277 271 271 271 273 273 272 271 270 266 264 264 265 266 266 268 269 270 273 271 270 268 268 268 268 267
281 280 282 280 275 272 271 265 267 267 264 266 271 270 277 277 277 273 274 271 270 269 269 270 269 268 263 262 262 261 261 262 263 264 265 264 264 265 265 264 262 262 263 263
280 278 273 274 271 266 263 265 259 256 259 267 270 272 276 276 279 276 273 269 268 268 269 268 266 259 257 256 257 256 257 260 260 260 260 260 259 259 259 258 257 258 257 257
275 272 268 266 263 262 259 259 258 262 266 266 263 266 272 278 274 275 270 270 269 266 265 264 254 253 252 253 252 251 253 254 255 256 257 257 256 255 255 255 255 256 254 254
271 266 262 259 256 262 261 258 260 259 260 262 273 268 274 270 274 274 269 266 266 268 265 252 252 252 252 252 252 252 252 253 253 254 255 255 254 254 252 252 253 253 253 253
263 256 257 251 255 252 256 255 258 259 257 259 262 273 273 271 272 269 267 267 267 260 247 250 252 251 251 251 252 252 252 252 252 252 253 253 253 251 250 250 250 250 251 251
253 247 247 248 249 252 251 251 254 257 256 264 266 270 267 269 263 259 250 253 247 247 249 250 251 250 250 251 251 251 251 252 252 251 251 250 250 251 251 249 246 248 247 249